Location: Caltech
(34.1382°N, 118.1253°W)
Time: 13:39:17
(UTC-07:00)

UOSAT-12 - Visible Passes

Search period start: 28 May 2016 00:00
Search period end: 07 June 2016 00:00
Orbit: 621 x 633 km, 64.6° (Epoch: 27 May)

Date Brightness Start Highest point End Pass type
(mag) Time Alt. Az. Time Alt. Az. Time Alt. Az.
28 May 9.1 01:36:14 27° N 01:36:14 27° N 01:38:29 10° NNE visible
29 May 9.9 00:17:59 11° NE 00:17:59 11° NE 00:18:07 10° NE visible
29 May 9.3 01:55:15 20° NNW 01:55:15 20° NNW 01:57:44 10° N visible
30 May 9.4 00:36:57 20° NNE 00:36:57 20° NNE 00:38:21 10° NNE visible
30 May 9.8 02:14:13 11° NW 02:14:27 11° NW 02:15:39 10° NNW visible
31 May 9.2 00:55:51 25° N 00:55:51 25° N 00:58:02 10° NNE visible
31 May 9.7 23:37:24 13° NE 23:37:24 13° NE 23:37:54 10° NE visible
01 Jun 9.5 01:14:40 18° NW 01:14:40 18° NW 01:17:08 10° N visible
01 Jun 9.1 23:56:09 24° NNE 23:56:09 24° NNE 23:57:59 10° NNE visible
03 Jun 9.0 00:14:46 28° NNW 00:14:46 28° NNW 00:17:33 10° N visible
03 Jun 9.0 22:56:01 21° NE 22:56:01 21° NE 22:57:37 10° NE visible
04 Jun 9.6 00:33:14 16° NW 00:33:33 16° NW 00:36:28 10° N visible
04 Jun 8.1 23:14:19 44° N 23:14:19 44° N 23:17:35 10° NNE visible
05 Jun 8.8 21:55:08 18° ENE 21:55:08 18° ENE 21:56:51 10° NE visible
05 Jun 8.8 23:32:18 27° WNW 23:33:04 29° NW 23:37:03 10° N visible
06 Jun 7.0 22:12:43 61° ESE 22:12:48 62° ESE 22:17:20 10° NE visible
06 Jun 9.9 23:50:52 10° W 23:53:17 14° NW 23:55:43 10° NNW visible
